STARLINK-35931

Last updated on Thu Dec 18 2025 00:02:05 GMT+0000 (Coordinated Universal Time)

1 66519U 25265D 25351.48095822 .00079214 00000+0 13422-2 0 9997 2 66519 42.9979 26.2806 0001841 290.0106 70.0556 15.50582880 4497
UTC large
Height (km)
Speed (km/s)
/
Latitude / Longitude
Inclination (degrees)
Orbital Period (minutes)
Azimuth
Elevation
Range (km)
Doppler Factor

Next 0 passes for location: London (51.5072 / 0.1276)

Sorry there are no passes over London.